Wind_Speed
16 16 17 17 18 19 19 19 19 19 18 17 18 18 19 20 20 21 21 20 19 18 17 17 17 18 19 19 20 21 22 23 24 26 26 26 26 25 26 27 28 29 30 30 31 32 34 35 36 36 36 35 35 34 34 34 34 34 34 33 33 32 32 32 32 32 32 32 32 32 31 30 30 30
16 17 17 17 18 19 19 19 19 19 19 19 19 20 20 21 22 23 23 22 20 19 18 18 18 18 18 20 21 22 23 25 26 27 28 28 28 28 28 29 30 30 31 32 32 33 34 36 36 37 37 37 36 36 36 36 36 36 36 36 35 35 34 34 34 34 34 34 33 33 32 32 31 31
19 19 20 20 20 20 20 20 19 19 19 19 20 21 22 23 23 23 24 23 22 20 20 20 20 20 20 21 22 24 25 27 28 29 30 30 30 30 31 30 30 31 32 33 34 35 36 36 38 38 39 39 38 38 38 38 38 38 38 39 39 38 37 36 36 35 35 36 36 35 34 33 33 32
22 22 22 22 23 23 22 22 21 20 20 20 21 21 22 23 24 24 24 24 22 21 22 23 23 23 24 25 26 27 28 29 30 31 32 33 33 33 33 32 30 30 31 33 34 36 37 37 38 39 40 40 41 41 41 41 41 41 41 41 41 42 41 41 40 38 37 37 37 37 37 36 35 34
23 24 23 23 24 24 25 24 23 21 21 21 21 22 23 24 24 25 25 25 24 24 25 25 26 25 26 28 29 30 32 32 33 34 35 35 36 35 34 33 32 31 31 32 34 35 37 38 39 40 41 42 42 42 42 42 43 43 43 43 43 44 44 45 45 44 42 41 39 38 38 38 37 37
23 23 22 23 23 24 24 24 24 23 22 22 22 23 24 25 25 25 26 27 27 28 29 29 29 28 28 30 32 33 35 36 36 37 37 36 36 36 35 34 34 33 32 33 33 35 36 37 39 40 41 42 43 43 44 44 44 45 45 45 46 46 46 46 47 47 47 46 45 43 42 40 39 38
23 22 22 22 22 23 24 23 23 23 23 23 23 24 24 25 26 26 26 27 28 29 30 32 32 32 32 34 35 36 37 38 38 38 38 37 36 36 36 36 36 36 35 35 35 35 36 37 39 41 42 42 42 42 43 44 44 45 46 47 47 48 49 49 49 49 49 50 50 49 48 46 43 40
24 23 22 23 23 24 25 24 22 23 24 24 24 25 25 25 27 27 27 28 28 29 30 32 33 34 34 36 37 38 38 38 39 39 38 37 37 37 38 38 38 38 38 38 37 37 37 38 40 41 42 42 41 41 41 42 42 43 44 45 46 47 49 50 50 50 51 51 52 52 52 51 49 45
25 25 25 25 25 26 26 25 24 23 24 24 24 25 25 25 26 27 28 28 28 28 29 31 33 35 36 37 39 41 41 40 40 40 39 38 39 40 40 40 40 39 39 39 39 39 38 38 39 40 41 42 41 41 41 41 42 42 43 43 44 46 48 48 49 50 50 51 52 53 53 53 52 50
24 25 25 26 27 27 28 27 25 24 24 25 25 24 24 24 25 26 27 28 28 29 29 31 33 36 37 39 40 42 43 42 42 43 42 41 42 42 42 42 42 42 42 41 40 39 38 37 37 37 38 39 40 40 41 41 42 43 43 43 43 45 45 44 44 44 45 47 48 49 51 52 52 51
22 23 25 26 28 28 28 28 26 25 25 25 24 24 23 24 25 26 27 28 29 29 30 31 33 35 37 40 41 42 43 43 43 45 46 45 44 44 43 43 43 44 44 43 42 39 37 36 35 34 36 39 40 41 42 43 44 45 45 43 41 41 40 39 39 39 40 41 42 43 45 48 49 50
22 23 24 27 29 29 27 27 26 26 26 25 24 24 24 25 26 27 28 29 30 31 32 33 35 36 38 40 42 43 44 44 44 46 49 48 46 45 45 44 45 45 45 45 43 39 38 39 37 35 38 41 42 42 42 42 42 43 43 42 41 40 40 40 40 41 42 43 44 43 43 45 47 48
23 24 24 26 29 29 28 27 27 27 27 26 25 25 25 26 27 28 30 31 32 32 33 35 36 37 38 41 43 44 45 46 45 46 49 49 47 46 45 44 45 46 46 46 43 39 39 39 38 38 41 43 44 44 45 45 44 44 43 42 42 43 43 44 44 45 46 48 49 49 47 46 46 47
24 25 25 26 27 28 30 29 27 26 26 26 26 26 26 27 28 29 31 32 33 34 34 36 37 39 40 42 44 45 46 47 47 47 48 48 48 47 45 44 43 45 46 46 42 39 39 40 40 41 43 45 46 47 47 48 49 49 48 47 46 46 46 46 47 48 49 50 50 51 50 49 48 48
26 27 27 26 27 29 31 30 28 25 24 24 26 27 27 28 29 30 32 33 34 35 36 37 39 40 42 44 45 47 48 48 49 49 49 49 48 47 46 44 43 44 45 45 43 39 39 41 41 41 43 45 46 47 48 49 50 51 51 51 50 49 47 47 47 49 50 51 51 51 51 51 51 51
27 29 29 30 31 32 31 30 28 26 24 24 26 27 28 29 30 31 32 34 35 36 38 39 41 43 44 45 47 48 49 49 49 50 50 50 49 48 47 45 44 44 44 44 43 40 39 41 42 42 44 45 45 46 47 47 48 48 49 50 50 49 49 48 48 48 49 50 52 52 52 53 53 53
26 28 30 30 30 29 28 29 30 28 26 27 28 29 29 30 31 32 33 34 36 37 39 40 42 44 45 46 48 49 50 50 50 50 50 50 49 48 47 45 44 44 44 44 44 43 42 43 43 43 45 46 46 46 46 46 47 47 48 48 48 49 49 49 49 48 48 49 50 52 52 53 53 53
24 27 29 30 30 30 29 30 31 30 29 29 29 30 31 31 32 33 34 35 37 38 40 42 43 45 46 48 49 50 50 51 51 51 50 50 49 47 45 44 44 44 45 45 45 45 44 44 44 43 44 45 45 45 45 45 45 45 46 46 47 47 47 48 48 48 47 47 48 49 50 50 51 51
23 25 27 30 33 33 32 31 31 31 30 30 31 32 32 32 33 34 35 36 38 39 41 43 45 46 47 48 50 50 51 51 51 50 49 48 46 46 45 45 45 44 44 44 45 44 44 45 44 44 45 46 45 45 45 45 45 44 44 44 44 45 45 45 45 45 45 45 45 46 47 48 48 49
23 24 26 29 32 33 32 32 31 30 30 31 32 33 33 33 34 35 36 37 39 41 42 44 46 47 48 49 50 50 50 50 50 49 47 46 46 46 46 45 44 43 43 43 44 43 43 44 44 44 45 45 45 46 46 46 45 45 44 43 43 43 44 44 44 43 43 43 43 43 44 45 45 46
24 25 26 28 30 32 33 33 32 30 30 32 33 34 34 34 35 36 37 39 40 42 43 45 46 47 49 49 50 50 50 49 48 47 46 46 47 46 44 43 42 41 41 42 42 42 43 44 44 44 44 45 45 45 45 45 45 45 44 44 43 43 43 43 43 42 42 42 41 41 42 42 43 44
25 26 27 29 30 32 33 34 33 32 32 34 35 36 36 36 37 37 38 40 42 43 44 46 47 48 49 49 49 49 47 46 46 46 46 45 44 43 41 40 39 39 40 42 42 43 44 45 45 45 45 44 45 45 44 43 43 43 42 42 42 42 42 41 41 41 41 40 40 39 39 40 41 42
27 28 28 29 31 32 33 34 34 34 35 36 36 36 37 37 38 38 39 41 42 44 45 46 47 48 48 48 48 46 45 45 45 45 44 42 41 40 39 38 38 39 41 42 43 43 44 45 46 46 46 44 42 42 42 41 40 40 40 40 40 40 40 39 39 39 39 38 38 38 38 39 40 41
28 29 29 30 32 33 33 34 35 36 36 37 37 37 38 38 38 39 40 42 43 44 46 46 47 48 47 46 45 44 45 45 44 42 41 40 38 37 37 38 39 40 41 42 42 43 44 45 45 46 45 42 39 37 37 37 37 38 38 38 38 38 38 37 37 37 37 37 37 37 38 38 39 40
29 29 29 30 32 33 34 35 36 37 37 37 38 38 38 38 39 40 41 43 44 45 45 46 47 46 45 44 44 44 44 43 41 40 39 37 36 36 37 39 40 40 41 41 42 43 43 43 44 43 42 40 37 34 33 32 34 35 35 35 36 36 36 36 35 36 36 37 37 38 38 38 39 40
29 29 29 31 32 33 35 36 36 37 38 38 38 38 38 38 40 41 42 43 44 45 45 45 45 44 43 43 43 42 42 40 39 38 37 35 36 38 39 40 40 40 40 41 42 42 42 42 42 41 39 37 35 33 31 30 31 32 33 34 34 34 34 34 34 35 36 37 37 38 38 39 40 41
30 29 29 31 33 34 36 37 37 37 38 37 37 38 38 39 40 41 42 43 44 44 44 43 43 42 42 42 41 41 40 38 37 35 35 36 37 38 39 39 39 40 40 41 41 41 41 41 40 38 36 34 32 30 29 29 29 31 32 33 34 34 34 34 35 35 36 37 37 38 39 40 40 41
32 30 30 31 33 35 36 37 37 37 38 37 37 38 38 40 41 41 42 43 43 43 42 42 42 41 41 40 40 39 38 36 35 34 35 37 38 38 38 39 39 40 40 40 41 41 41 40 38 36 35 33 31 29 28 28 28 30 31 31 32 34 34 35 35 36 36 37 37 38 39 40 41 41
34 31 31 32 34 36 37 37 37 37 38 38 37 38 39 40 41 41 42 42 42 41 41 40 41 40 40 40 39 37 36 34 34 35 37 38 38 38 39 39 40 40 40 41 41 41 42 40 38 36 34 33 32 31 30 29 28 30 30 30 31 32 34 35 36 36 37 38 38 38 39 40 41 42
35 32 31 33 36 36 36 37 37 38 38 38 37 38 40 40 41 41 41 41 40 40 39 40 40 41 40 39 37 35 34 34 34 36 37 38 38 39 39 39 40 40 40 41 41 41 42 41 39 36 35 34 34 34 33 32 31 31 32 32 31 31 32 34 36 37 38 38 38 39 40 41 42 43
35 35 34 35 37 37 37 37 38 38 38 37 38 39 40 40 40 40 40 39 38 38 38 39 41 41 39 37 35 33 33 33 34 36 38 38 38 38 38 38 39 39 39 40 41 41 42 41 39 37 36 35 35 36 36 35 34 34 34 34 33 33 32 33 35 36 38 39 39 40 40 41 42 43
38 37 37 37 38 38 38 38 38 38 37 37 38 39 39 39 39 39 38 38 36 36 37 39 40 39 37 35 33 32 32 33 35 37 37 37 37 37 37 37 37 38 38 39 40 41 41 40 38 36 36 36 36 37 37 37 37 37 36 36 35 35 35 35 35 36 37 38 39 40 40 40 41 43
43 40 40 40 41 40 39 38 38 38 37 37 39 39 39 38 38 37 36 35 35 36 38 39 39 37 35 33 31 31 32 34 36 37 37 36 36 36 35 36 36 36 36 37 39 40 40 38 36 36 36 37 37 37 36 36 37 38 38 38 37 37 36 36 37 37 37 38 39 39 38 39 40 42
47 44 43 42 42 42 40 38 38 38 37 38 38 38 38 38 37 36 34 33 34 36 37 38 36 35 33 31 30 30 32 34 36 36 35 35 35 34 34 34 35 35 35 36 37 38 38 37 36 35 35 36 38 39 38 37 37 37 38 38 38 38 37 36 37 37 38 38 38 38 37 36 38 40
47 46 44 44 44 43 40 39 38 38 37 38 38 38 38 37 35 34 32 31 33 35 36 36 34 33 31 30 29 30 32 34 35 35 34 34 33 33 33 34 34 34 35 35 35 36 37 36 35 34 34 35 37 39 41 41 40 39 38 37 37 37 37 36 36 37 37 37 37 37 36 35 35 38
47 47 47 47 46 44 40 39 39 38 37 38 38 38 37 35 33 32 30 30 32 34 34 34 33 31 29 28 28 30 32 34 34 33 33 32 32 32 32 33 33 34 34 35 35 35 36 36 34 33 33 34 35 36 39 42 43 42 40 38 37 36 35 34 34 35 36 36 35 35 35 33 33 36
46 47 49 49 47 43 40 40 39 37 37 38 38 37 36 34 31 29 28 29 31 32 33 32 31 29 28 27 28 30 32 32 32 31 31 30 30 31 32 32 33 34 34 35 35 35 35 36 35 34 33 34 34 35 36 39 42 44 44 41 38 36 34 33 32 32 33 34 34 34 33 32 32 34
46 48 51 51 47 43 41 40 38 37 37 37 37 36 34 31 30 28 27 28 29 31 31 30 29 27 26 27 28 30 31 31 30 29 28 28 29 30 31 32 33 34 35 35 35 35 35 36 36 36 35 34 34 35 35 37 39 42 43 42 38 35 33 31 29 29 30 30 30 31 32 32 32 34
49 51 53 53 49 44 41 38 36 36 37 37 36 35 32 30 28 26 26 27 28 30 30 29 27 26 26 26 28 30 30 30 29 27 26 27 28 29 31 32 34 35 35 36 36 36 36 36 36 37 36 36 36 36 36 37 38 40 42 42 39 36 33 31 29 27 27 27 27 27 28 30 31 33
52 54 55 53 49 43 38 36 36 36 36 36 35 33 30 28 26 25 25 26 28 29 29 27 26 26 25 26 28 29 29 28 27 25 25 26 27 29 30 32 34 35 36 36 37 37 37 37 37 37 37 37 37 37 37 38 40 41 42 43 41 38 35 33 31 29 27 26 26 26 27 28 29 31
54 55 54 49 44 40 36 35 36 36 35 35 33 31 28 26 25 24 25 26 27 28 28 27 26 25 24 25 27 29 29 27 25 24 24 26 27 29 30 32 33 34 36 37 37 38 37 37 37 37 38 38 38 38 38 39 40 41 42 42 41 40 37 36 35 32 30 29 29 29 30 30 30 31
54 55 51 45 40 37 35 35 36 36 34 33 32 29 27 25 24 24 25 26 27 28 28 26 24 23 23 25 27 28 28 26 24 23 24 26 27 28 29 31 32 34 35 37 38 38 38 38 37 38 38 38 39 39 39 39 40 41 41 40 39 39 38 37 37 36 35 34 34 35 35 36 35 35
54 52 48 42 38 35 35 35 36 35 33 32 30 28 26 24 23 23 24 25 27 27 26 24 22 23 24 25 27 27 27 25 23 23 24 26 27 28 29 30 32 33 35 36 38 38 39 39 38 38 38 38 39 40 40 39 40 41 41 40 38 36 36 37 37 38 38 38 38 40 42 43 44 43
52 49 44 39 36 35 35 35 35 34 32 31 29 27 25 23 23 23 24 25 26 25 24 22 22 23 24 25 26 26 26 24 23 23 25 26 27 28 29 30 31 32 34 36 37 38 39 39 39 38 37 38 39 40 40 40 39 40 40 40 38 36 34 34 35 36 37 38 39 40 42 44 46 47
48 45 41 37 35 35 35 35 34 33 32 30 28 26 24 23 23 23 24 24 25 24 23 22 22 23 24 25 26 26 25 23 23 23 25 26 27 28 29 30 31 32 33 35 36 38 39 40 40 39 38 38 38 39 40 40 40 40 40 40 39 37 35 34 33 33 34 35 37 38 39 41 44 46
Wind_Direction
345 345 344 345 344 344 344 342 338 334 330 326 321 318 317 318 319 319 319 319 317 315 314 314 311 307 305 305 308 314 319 322 323 323 323 322 319 315 308 302 296 292 288 284 280 276 273 270 268 268 267 267 267 266 265 265 265 265 265 265 264 263 262 261 259 258 256 254 252 250 247 245 244 243
335 335 335 336 337 338 340 340 338 335 331 326 322 320 319 318 319 319 319 317 313 311 312 313 312 309 307 308 313 318 321 321 321 321 320 319 317 314 309 304 298 294 290 286 282 278 275 272 270 269 268 267 267 267 266 264 263 263 263 263 264 263 262 260 259 257 256 255 254 252 250 248 247 245
327 327 328 330 333 333 333 334 335 335 333 329 324 320 319 319 319 321 321 318 314 311 313 316 316 315 314 314 317 320 319 318 318 317 317 316 314 311 307 303 299 295 291 287 284 282 279 276 274 272 271 269 268 267 266 265 264 262 261 261 262 262 262 262 260 258 256 255 255 254 252 251 250 248
324 325 327 330 333 334 332 331 330 331 332 331 329 326 323 322 322 323 322 319 314 312 314 316 318 319 319 319 318 318 316 315 315 315 315 315 312 309 306 303 299 295 291 288 285 283 282 280 279 277 275 273 271 269 267 266 266 265 263 262 262 261 261 262 262 261 258 256 255 254 253 252 252 250
326 326 327 330 335 337 335 333 331 329 328 329 330 328 326 325 324 324 322 320 318 316 315 315 317 320 320 318 316 316 315 315 316 316 315 313 310 307 305 303 299 295 291 288 285 282 281 281 280 279 278 276 275 273 271 269 268 267 266 265 264 263 262 261 261 262 261 260 258 256 254 253 252 251
329 330 330 332 336 338 337 335 333 329 327 327 327 326 325 324 324 324 323 323 323 322 321 320 321 322 320 317 315 315 314 315 315 313 312 310 308 306 305 303 301 297 293 289 285 281 278 277 277 277 277 277 275 274 273 272 270 269 268 267 266 265 263 262 261 261 261 261 261 260 257 255 253 252
332 334 334 334 336 337 337 335 333 330 327 326 325 323 323 323 323 324 324 324 325 325 324 323 323 321 318 316 315 313 313 313 312 311 310 309 308 306 305 304 302 300 297 293 288 284 279 276 274 274 275 276 276 275 274 273 273 272 270 268 267 267 266 264 262 261 260 260 261 262 261 259 255 253
332 334 333 333 333 335 336 334 331 329 327 324 322 320 321 323 324 323 323 323 323 323 322 321 320 318 317 316 314 313 313 313 312 311 310 309 307 305 305 304 303 302 299 296 292 289 285 280 277 274 273 275 276 276 276 276 275 274 273 272 270 269 268 267 265 262 260 259 260 260 261 260 258 254
331 331 331 331 332 334 336 334 330 329 326 321 318 317 319 322 322 321 321 320 320 320 319 318 317 316 317 317 316 316 316 316 314 311 309 308 306 305 305 304 304 303 301 298 295 293 292 287 282 277 275 276 277 278 278 277 277 276 275 274 273 271 269 267 266 264 263 261 260 260 259 259 257 255
330 330 330 332 334 334 335 334 330 327 326 321 317 315 317 320 319 318 318 317 317 317 317 317 317 316 317 316 315 316 316 315 314 310 307 307 306 305 305 305 304 304 302 300 298 297 294 290 283 278 277 279 280 281 281 279 277 276 276 274 272 270 268 267 266 266 266 265 263 261 260 259 257 256
329 329 330 332 332 331 332 331 328 324 323 322 320 319 319 320 319 317 316 316 316 317 318 318 317 316 316 314 313 314 313 312 310 308 306 308 308 307 306 306 305 304 303 302 301 299 295 290 284 280 281 282 282 283 283 281 278 276 276 275 271 267 263 262 263 265 267 268 266 265 263 261 258 257
327 328 328 329 328 329 330 329 326 323 323 323 323 322 322 321 319 316 316 317 319 320 320 319 318 316 313 312 312 312 311 309 308 307 307 309 310 308 307 307 305 304 303 302 302 301 297 293 288 283 282 282 282 283 283 283 280 276 273 272 270 264 258 256 260 263 267 271 272 272 270 266 262 260
323 325 326 326 326 328 329 330 328 323 323 326 325 323 322 321 319 317 317 320 321 322 321 318 316 314 311 310 311 310 309 309 309 308 307 308 308 307 307 306 304 303 302 302 303 301 297 294 290 284 281 280 279 280 281 281 281 278 274 271 269 266 262 261 263 265 268 272 275 276 275 272 267 264
320 321 322 322 326 329 328 330 332 324 319 322 324 323 322 320 318 317 319 321 321 321 319 316 314 313 310 309 310 310 309 309 309 308 308 307 307 306 306 305 303 302 302 302 302 299 296 294 290 286 283 282 281 281 280 280 280 280 279 277 276 274 271 271 271 271 271 272 272 272 273 272 269 266
319 319 317 319 326 330 328 328 330 325 318 320 321 320 319 319 318 319 320 320 320 318 317 315 313 312 310 310 310 310 310 310 309 308 308 307 307 307 306 305 304 303 303 303 302 300 297 296 293 289 287 285 285 284 283 282 281 280 280 281 281 279 277 275 273 271 271 271 269 269 268 268 267 266
319 317 315 318 320 320 321 324 327 325 321 320 319 318 318 318 319 320 320 319 318 317 316 314 313 312 312 311 311 311 311 310 309 309 308 308 307 307 307 307 306 305 304 304 304 302 298 296 296 293 290 289 289 287 285 283 281 280 279 278 278 278 276 274 272 269 267 267 267 266 265 265 265 265
317 315 317 321 319 317 319 323 326 324 321 319 319 318 318 318 318 318 318 316 315 315 315 314 312 312 313 312 311 311 311 310 310 310 309 309 308 309 309 309 308 307 306 305 304 303 300 297 297 294 291 290 290 288 285 283 281 279 278 276 275 274 273 271 270 268 265 263 263 263 263 263 262 262
316 315 317 319 320 321 321 323 325 325 322 320 319 318 317 317 316 315 315 314 314 314 313 313 312 312 313 312 311 311 311 311 310 311 310 310 310 311 311 310 309 308 306 305 304 303 301 299 298 296 293 293 292 289 286 284 282 280 278 277 275 273 272 270 269 268 266 263 261 260 260 260 260 259
315 316 316 316 318 320 320 321 325 326 323 321 320 317 316 314 313 313 314 314 314 313 312 312 312 313 313 312 311 311 311 311 311 311 311 311 312 312 312 311 310 308 307 306 305 304 303 300 299 298 296 295 294 291 289 287 286 283 281 279 277 275 273 272 270 269 267 265 263 261 259 258 258 257
311 313 315 315 316 317 318 321 325 324 321 319 316 313 312 311 311 312 313 313 313 312 312 313 313 313 312 312 311 311 311 312 312 312 312 312 312 312 312 311 310 309 308 306 306 306 305 302 302 301 299 297 294 292 290 289 287 285 283 281 279 277 275 274 272 271 269 268 266 263 261 259 257 256
304 309 312 312 313 314 316 319 323 323 319 315 312 310 310 310 310 311 312 312 311 312 313 313 313 313 312 311 311 311 312 312 313 313 313 313 313 313 312 311 311 310 309 308 309 309 308 305 305 303 301 298 295 292 290 289 287 286 284 283 281 278 277 275 273 272 270 269 266 264 262 260 258 257
298 302 306 308 310 312 314 318 322 322 319 314 311 311 311 310 310 311 311 311 311 312 313 313 313 312 311 311 311 312 313 313 313 313 314 314 314 313 313 313 313 313 311 312 313 312 310 309 307 306 303 300 296 293 292 290 288 286 284 283 281 280 278 276 275 273 272 271 269 267 265 264 263 262
292 296 301 305 308 309 313 317 321 322 319 315 311 309 308 308 308 310 311 311 312 313 313 312 311 311 311 312 312 313 313 313 314 314 315 315 315 315 315 315 315 315 314 314 315 315 314 312 311 309 306 303 299 296 294 292 289 287 285 284 282 280 279 277 276 274 273 272 271 270 269 268 267 266
286 291 296 301 304 307 312 315 319 320 317 313 309 307 306 307 308 310 310 311 312 312 312 311 310 311 312 312 313 313 313 314 316 317 317 316 316 316 315 316 316 316 316 316 318 318 317 315 313 311 309 306 302 299 297 295 292 290 288 286 284 282 280 278 276 275 273 272 271 270 269 268 267 266
281 286 292 297 300 305 310 313 316 317 315 312 309 306 306 307 308 309 309 310 311 311 310 310 311 311 312 313 313 313 315 317 318 318 318 317 316 316 316 316 317 317 318 319 320 320 320 318 316 314 312 310 306 303 301 299 296 293 290 288 285 284 282 281 279 278 276 275 274 273 272 271 270 268
278 283 288 293 298 303 306 310 314 315 313 311 308 307 307 307 307 307 308 309 310 309 309 310 311 312 312 313 314 315 318 320 319 318 317 316 315 316 316 317 318 319 320 322 322 323 323 321 319 317 315 312 310 307 304 301 297 295 293 290 288 286 285 283 282 281 280 279 278 277 276 275 273 272
277 282 285 289 295 299 303 307 312 313 312 309 307 306 305 305 305 306 308 308 307 307 309 311 312 312 314 315 317 319 320 320 318 316 315 315 315 317 317 318 320 320 321 322 323 325 326 324 321 319 316 313 311 308 304 300 296 294 293 292 291 289 287 285 283 282 281 280 279 279 277 276 275 273
276 279 282 287 291 295 300 305 310 311 310 307 304 303 303 303 304 306 306 306 306 307 310 312 312 314 317 319 320 320 320 319 317 315 314 315 317 318 319 320 320 321 321 322 324 326 328 327 324 320 317 314 312 309 304 300 296 293 291 291 292 291 290 287 286 284 282 281 279 279 278 277 277 276
273 276 280 284 288 292 298 303 307 309 307 304 301 300 301 301 303 305 304 304 306 309 311 312 315 319 321 321 321 320 319 317 316 315 315 317 320 320 321 321 321 322 323 324 326 328 330 329 326 322 319 316 314 311 307 304 300 296 292 290 289 290 289 288 287 285 284 282 281 280 279 279 278 278
271 275 279 282 286 291 297 302 306 306 303 300 298 298 299 301 302 303 302 303 306 309 312 315 320 322 322 322 321 319 317 316 315 316 318 321 322 322 322 322 323 325 325 326 328 330 331 330 327 324 321 319 316 314 311 308 305 301 297 293 290 288 286 285 285 284 282 281 280 280 279 278 278 277
274 277 279 282 284 290 296 300 303 303 300 296 296 296 298 300 301 300 301 304 307 311 315 320 322 323 322 321 320 317 316 315 316 319 321 322 322 323 323 325 326 327 327 328 330 331 332 331 329 326 323 320 317 315 313 311 308 304 300 297 293 290 287 284 282 281 280 279 278 277 276 276 276 276
277 277 278 281 283 287 294 298 299 299 297 293 294 295 297 300 299 299 301 305 308 314 320 322 322 322 322 321 318 316 315 316 319 322 322 322 322 323 325 327 327 328 329 330 331 332 332 332 331 329 326 323 320 317 315 313 310 306 303 299 297 294 291 287 284 281 280 278 277 276 275 275 275 275
275 276 278 280 281 283 289 295 296 295 294 291 292 295 297 298 297 298 301 306 312 318 322 322 322 322 321 319 316 315 316 319 322 322 322 322 323 325 326 328 328 329 329 330 332 333 333 333 332 331 330 328 325 322 320 317 312 308 305 301 298 295 292 289 286 284 281 278 276 275 274 275 276 275
273 275 277 280 279 279 285 292 293 292 291 290 292 295 296 295 296 298 301 308 316 321 322 321 321 322 319 317 315 316 318 321 322 322 321 323 325 327 328 328 329 329 330 331 332 334 334 334 333 333 332 331 329 328 328 327 323 318 313 308 303 298 295 292 288 286 284 281 278 275 274 274 275 275
272 274 277 279 278 278 283 290 290 289 288 289 291 294 293 293 295 298 304 312 318 321 321 321 321 320 317 316 315 317 321 322 321 321 322 325 327 328 329 330 330 330 331 332 333 335 336 336 335 333 333 333 332 330 331 332 331 328 324 319 312 305 300 295 292 289 287 285 283 280 277 275 275 275
272 273 277 279 276 275 282 288 288 286 285 287 290 292 291 292 295 299 306 315 319 320 320 320 320 319 316 315 317 320 322 321 320 321 324 327 329 330 331 332 332 332 332 333 334 336 337 338 337 335 334 334 334 331 330 330 332 332 330 327 322 315 308 302 297 294 291 289 287 286 283 281 278 277
272 273 278 279 276 275 282 287 285 283 284 286 289 289 289 292 296 301 309 315 318 318 319 319 319 317 315 315 318 320 321 319 319 322 326 329 331 334 335 335 335 334 334 334 335 336 337 338 339 338 337 336 335 334 332 331 331 332 332 331 328 323 316 309 303 298 294 292 291 290 288 285 282 281
274 275 277 278 276 277 283 285 282 280 282 285 286 287 288 292 298 303 309 314 316 317 318 318 317 315 314 315 318 319 319 318 319 323 327 331 335 338 339 339 338 338 337 336 336 336 337 338 340 340 339 338 337 336 336 335 333 331 330 330 330 326 320 313 307 300 296 294 293 293 291 289 288 287
274 275 274 274 275 278 282 281 277 277 281 283 284 286 289 293 298 303 309 312 314 315 317 316 315 314 314 315 317 317 317 317 319 324 328 333 337 340 341 342 342 341 340 338 337 337 337 338 340 341 340 340 339 338 339 338 336 335 334 333 333 330 325 320 314 308 304 301 298 296 293 292 292 292
272 272 272 273 275 277 277 275 273 276 279 281 282 285 289 293 297 302 307 310 312 314 315 315 314 314 313 314 315 315 314 315 319 324 328 332 336 339 341 343 344 343 342 340 339 338 337 338 339 340 341 340 340 339 339 339 340 340 339 337 336 334 330 326 321 317 314 310 306 302 299 298 297 296
268 269 270 272 274 273 271 270 272 276 278 280 281 285 289 293 296 300 305 309 311 313 313 314 314 311 309 311 313 312 312 314 318 323 327 330 333 337 340 343 343 343 343 342 341 340 338 338 339 340 341 341 340 339 339 340 341 342 342 340 339 337 334 330 325 322 319 318 315 312 310 309 307 305
263 267 270 271 270 268 267 268 272 275 277 278 281 284 288 291 294 299 304 307 309 311 312 312 310 305 304 308 310 309 309 312 317 322 325 327 331 335 339 341 342 343 343 343 342 341 340 339 339 339 340 341 341 340 340 339 340 342 343 343 341 340 337 333 329 326 325 324 323 321 320 320 319 317
262 265 268 268 266 264 265 268 272 274 276 277 279 283 287 290 293 298 302 305 308 310 309 307 303 300 301 306 308 306 306 309 314 319 321 324 329 333 337 339 341 341 342 342 343 342 341 340 339 339 340 340 341 341 341 340 340 341 343 343 343 342 340 337 334 331 329 328 328 328 328 328 328 327
262 264 265 264 261 261 264 268 271 273 274 274 277 282 285 289 292 296 300 303 306 306 304 300 297 297 300 304 304 303 303 306 310 314 318 322 327 332 335 337 339 340 341 342 342 342 342 341 341 340 340 340 341 341 341 340 340 341 342 343 344 343 342 339 336 333 331 331 331 331 330 329 329 329
262 263 262 260 258 260 264 267 269 271 271 272 276 281 284 288 291 294 298 301 303 302 298 295 294 295 297 300 301 300 299 301 305 310 315 320 326 331 334 336 337 338 340 341 341 341 342 342 342 341 340 340 341 342 342 342 341 341 343 344 344 344 343 340 337 335 334 333 332 331 331 330 328 327
Height
5911 5910 5909 5908 5906 5905 5904 5903 5902 5901 5900 5899 5899 5898 5898 5897 5896 5895 5894 5893 5892 5891 5890 5889 5888 5887 5885 5884 5882 5881 5880 5879 5877 5876 5875 5873 5873 5872 5870 5869 5867 5866 5865 5864 5863 5862 5862 5861 5861 5860 5860 5860 5860 5860 5860 5861 5861 5861 5861 5861 5861 5861 5861 5862 5862 5862 5862 5863 5863 5863 5863 5863 5864 5864
5910 5909 5908 5907 5906 5904 5903 5902 5901 5899 5898 5897 5896 5896 5895 5895 5894 5893 5892 5891 5890 5889 5888 5887 5886 5885 5884 5882 5881 5879 5878 5877 5875 5873 5872 5871 5869 5868 5866 5865 5863 5861 5860 5859 5858 5857 5857 5856 5856 5855 5855 5855 5855 5855 5855 5855 5855 5856 5856 5856 5856 5856 5857 5857 5857 5857 5858 5858 5858 5859 5859 5859 5859 5860
5910 5908 5907 5906 5905 5904 5902 5901 5900 5898 5897 5896 5894 5894 5893 5892 5891 5890 5889 5888 5887 5886 5885 5885 5884 5882 5881 5880 5879 5877 5876 5874 5872 5871 5869 5867 5866 5864 5862 5860 5859 5857 5856 5854 5853 5852 5852 5851 5851 5850 5850 5850 5849 5849 5849 5849 5850 5850 5850 5851 5851 5851 5851 5851 5852 5852 5853 5853 5853 5854 5854 5854 5854 5855
5908 5907 5906 5905 5903 5902 5901 5899 5898 5897 5895 5894 5893 5892 5891 5889 5888 5887 5886 5885 5884 5883 5882 5882 5880 5879 5878 5877 5876 5874 5873 5871 5869 5867 5866 5864 5862 5860 5858 5856 5854 5853 5851 5850 5849 5847 5847 5846 5845 5845 5845 5844 5844 5844 5844 5844 5844 5844 5844 5845 5845 5845 5846 5846 5846 5847 5848 5848 5848 5848 5849 5849 5849 5850
5907 5905 5904 5903 5901 5900 5898 5897 5896 5894 5893 5892 5891 5890 5889 5887 5886 5885 5883 5882 5881 5880 5879 5878 5878 5877 5876 5874 5872 5871 5869 5867 5866 5864 5863 5861 5859 5856 5854 5852 5850 5849 5847 5846 5845 5843 5842 5841 5840 5840 5839 5839 5838 5838 5838 5838 5838 5838 5838 5838 5838 5839 5840 5840 5841 5841 5842 5842 5843 5843 5843 5844 5844 5844
5905 5903 5902 5900 5899 5898 5896 5895 5893 5892 5890 5889 5889 5888 5887 5885 5884 5883 5881 5879 5878 5876 5876 5875 5874 5874 5873 5871 5869 5867 5865 5864 5863 5861 5859 5857 5855 5852 5850 5848 5846 5844 5843 5842 5840 5839 5838 5837 5836 5835 5834 5833 5833 5832 5832 5832 5832 5832 5832 5832 5832 5832 5833 5834 5834 5835 5835 5836 5837 5837 5838 5838 5838 5839
5903 5901 5900 5899 5897 5896 5894 5892 5891 5889 5888 5887 5886 5885 5884 5883 5882 5880 5879 5877 5876 5874 5873 5872 5871 5870 5869 5867 5865 5863 5862 5860 5859 5857 5855 5853 5850 5848 5846 5844 5842 5840 5838 5837 5835 5834 5833 5832 5831 5830 5828 5827 5827 5826 5826 5826 5825 5825 5825 5825 5826 5826 5826 5826 5827 5828 5828 5829 5829 5830 5831 5832 5832 5832
5900 5899 5898 5896 5895 5893 5892 5890 5888 5887 5886 5884 5883 5882 5881 5880 5879 5878 5876 5875 5874 5873 5871 5869 5867 5866 5865 5863 5861 5859 5858 5857 5855 5852 5850 5848 5846 5843 5841 5840 5837 5835 5834 5832 5830 5829 5828 5827 5825 5824 5823 5822 5822 5821 5820 5819 5819 5819 5819 5819 5819 5819 5819 5819 5819 5820 5820 5821 5822 5823 5823 5825 5825 5826
5898 5897 5895 5894 5892 5891 5889 5887 5886 5885 5884 5883 5881 5879 5878 5877 5876 5875 5874 5873 5872 5870 5869 5867 5865 5862 5861 5859 5856 5854 5853 5852 5850 5847 5845 5843 5840 5838 5836 5835 5833 5831 5829 5826 5825 5824 5823 5821 5819 5818 5817 5817 5816 5816 5815 5814 5812 5812 5812 5812 5812 5812 5811 5811 5811 5811 5812 5813 5814 5815 5816 5817 5818 5819
5896 5895 5893 5891 5889 5888 5886 5885 5884 5882 5881 5880 5879 5877 5876 5874 5873 5872 5871 5870 5869 5867 5866 5864 5862 5859 5857 5855 5852 5850 5848 5847 5844 5841 5839 5838 5835 5833 5831 5829 5827 5826 5823 5821 5820 5819 5817 5815 5814 5813 5812 5811 5810 5809 5808 5807 5806 5805 5805 5804 5804 5804 5804 5804 5804 5805 5805 5806 5806 5807 5808 5809 5810 5811
5894 5893 5891 5889 5887 5885 5883 5883 5882 5880 5879 5877 5876 5874 5873 5871 5870 5869 5868 5867 5865 5864 5863 5861 5859 5856 5854 5851 5848 5846 5844 5842 5840 5835 5832 5832 5830 5827 5826 5824 5822 5820 5818 5816 5814 5813 5812 5810 5809 5808 5807 5806 5804 5803 5802 5800 5799 5799 5798 5798 5797 5797 5797 5798 5798 5798 5799 5799 5800 5800 5801 5802 5803 5803
5892 5891 5889 5887 5884 5882 5881 5880 5880 5878 5877 5875 5873 5871 5869 5868 5867 5866 5864 5863 5862 5860 5859 5857 5855 5853 5850 5847 5844 5842 5839 5838 5836 5831 5827 5826 5825 5822 5820 5819 5816 5814 5811 5809 5808 5807 5805 5803 5802 5802 5801 5800 5798 5797 5795 5794 5793 5792 5792 5791 5790 5790 5791 5791 5791 5792 5792 5792 5792 5793 5794 5794 5795 5795
5889 5888 5886 5884 5881 5879 5878 5878 5877 5876 5875 5873 5871 5869 5867 5865 5864 5862 5861 5859 5857 5856 5854 5853 5850 5848 5846 5843 5840 5838 5835 5833 5831 5828 5823 5822 5820 5817 5815 5813 5811 5808 5806 5803 5802 5801 5799 5797 5795 5795 5794 5793 5791 5790 5789 5787 5786 5786 5785 5785 5784 5784 5784 5784 5785 5785 5785 5785 5785 5785 5785 5786 5787 5788
5886 5885 5884 5881 5879 5877 5875 5875 5875 5873 5872 5870 5868 5865 5864 5862 5861 5859 5857 5855 5853 5852 5850 5848 5846 5844 5841 5839 5835 5833 5831 5828 5826 5823 5820 5817 5815 5813 5811 5808 5805 5802 5800 5798 5796 5795 5793 5792 5790 5788 5787 5785 5783 5782 5781 5779 5779 5778 5778 5777 5777 5777 5777 5777 5777 5777 5777 5777 5777 5777 5777 5778 5779 5780
5883 5882 5880 5878 5877 5875 5873 5872 5872 5870 5868 5866 5864 5862 5860 5858 5857 5855 5853 5851 5850 5848 5846 5844 5841 5839 5836 5834 5831 5828 5826 5824 5821 5818 5815 5813 5810 5807 5806 5804 5800 5796 5794 5792 5791 5789 5787 5785 5784 5782 5780 5778 5776 5775 5774 5772 5771 5770 5770 5769 5768 5768 5768 5769 5769 5768 5768 5768 5768 5769 5769 5769 5770 5770
5881 5878 5876 5875 5874 5873 5872 5870 5868 5866 5864 5862 5860 5858 5856 5854 5852 5851 5849 5847 5845 5843 5841 5839 5836 5834 5831 5829 5826 5823 5821 5818 5815 5813 5810 5807 5805 5802 5800 5798 5795 5791 5789 5787 5785 5784 5781 5779 5778 5776 5773 5771 5770 5768 5767 5765 5764 5763 5762 5761 5760 5760 5760 5759 5759 5760 5760 5759 5759 5760 5760 5760 5760 5761
5878 5875 5872 5872 5871 5871 5868 5865 5863 5862 5861 5859 5857 5854 5852 5850 5848 5847 5845 5843 5841 5839 5837 5834 5832 5829 5827 5825 5822 5818 5816 5813 5810 5807 5804 5801 5798 5796 5794 5791 5789 5786 5784 5781 5779 5778 5775 5772 5771 5769 5766 5763 5762 5761 5758 5757 5756 5755 5753 5753 5752 5751 5751 5751 5750 5750 5751 5751 5751 5751 5751 5751 5751 5751
5876 5873 5870 5868 5867 5867 5865 5862 5859 5858 5857 5855 5853 5850 5848 5846 5845 5843 5842 5839 5837 5835 5832 5830 5827 5825 5822 5820 5816 5813 5810 5807 5804 5801 5798 5795 5792 5790 5788 5786 5783 5780 5778 5775 5773 5772 5769 5766 5764 5762 5759 5756 5755 5752 5750 5748 5747 5746 5745 5744 5743 5743 5742 5742 5742 5742 5742 5742 5743 5742 5742 5742 5742 5743
5872 5871 5868 5865 5863 5862 5861 5859 5857 5855 5853 5851 5849 5847 5845 5843 5841 5840 5837 5835 5833 5831 5828 5825 5823 5820 5817 5814 5811 5808 5805 5802 5799 5796 5793 5790 5787 5785 5783 5780 5777 5774 5772 5769 5766 5765 5763 5759 5757 5755 5752 5749 5747 5744 5742 5740 5739 5738 5737 5736 5735 5734 5734 5733 5733 5734 5734 5734 5734 5734 5734 5734 5735 5735
5869 5868 5866 5863 5860 5859 5857 5856 5855 5853 5851 5848 5846 5844 5842 5840 5838 5836 5834 5831 5829 5826 5824 5821 5818 5815 5812 5809 5806 5802 5799 5796 5793 5791 5788 5785 5783 5780 5778 5775 5772 5769 5766 5762 5760 5759 5756 5752 5751 5749 5745 5742 5740 5736 5734 5733 5731 5730 5729 5729 5728 5727 5726 5726 5726 5726 5726 5726 5726 5726 5727 5727 5727 5728
5865 5864 5862 5861 5858 5856 5854 5853 5852 5850 5848 5845 5843 5841 5839 5836 5834 5832 5830 5827 5825 5822 5819 5816 5813 5810 5807 5804 5801 5797 5794 5791 5788 5786 5783 5781 5778 5775 5773 5770 5767 5764 5760 5757 5755 5753 5750 5746 5744 5742 5739 5735 5732 5729 5727 5725 5724 5723 5722 5721 5720 5719 5719 5718 5718 5718 5718 5718 5719 5719 5719 5720 5720 5721
5861 5860 5858 5857 5855 5853 5851 5849 5848 5846 5844 5841 5839 5837 5834 5832 5830 5828 5825 5823 5820 5817 5814 5811 5808 5805 5802 5799 5796 5792 5790 5787 5784 5781 5779 5776 5773 5770 5767 5765 5762 5759 5755 5752 5750 5747 5744 5740 5737 5735 5733 5729 5724 5721 5720 5718 5717 5715 5715 5714 5713 5712 5711 5711 5711 5711 5711 5711 5711 5711 5712 5712 5713 5714
5857 5856 5854 5853 5851 5849 5848 5846 5844 5842 5839 5837 5834 5832 5830 5828 5826 5824 5821 5818 5815 5813 5810 5807 5804 5801 5798 5794 5791 5788 5785 5782 5780 5777 5774 5771 5768 5765 5763 5760 5758 5755 5751 5747 5745 5742 5738 5734 5730 5727 5726 5723 5719 5715 5713 5711 5709 5708 5707 5707 5706 5705 5705 5705 5705 5704 5705 5705 5705 5705 5705 5705 5706 5706
5853 5851 5850 5848 5847 5845 5844 5842 5840 5837 5835 5833 5831 5828 5826 5824 5821 5819 5816 5814 5811 5808 5805 5802 5799 5796 5793 5790 5787 5784 5781 5778 5775 5772 5769 5767 5764 5762 5759 5756 5753 5750 5746 5743 5740 5736 5732 5728 5724 5720 5718 5716 5714 5710 5707 5705 5703 5702 5701 5701 5700 5699 5699 5699 5699 5699 5698 5698 5698 5699 5699 5699 5699 5699
5848 5847 5845 5844 5843 5841 5839 5837 5835 5833 5830 5828 5826 5824 5822 5819 5817 5814 5812 5809 5806 5803 5800 5798 5795 5792 5789 5786 5782 5779 5776 5773 5770 5767 5765 5763 5761 5758 5755 5752 5749 5745 5741 5738 5735 5731 5727 5723 5719 5715 5712 5709 5707 5705 5703 5701 5698 5697 5696 5695 5695 5694 5694 5693 5693 5692 5692 5691 5691 5691 5691 5691 5691 5691
5843 5842 5841 5840 5838 5837 5835 5833 5830 5828 5826 5823 5821 5819 5817 5815 5812 5810 5807 5805 5802 5799 5796 5794 5791 5788 5785 5782 5778 5775 5771 5769 5766 5764 5762 5760 5758 5755 5751 5748 5744 5741 5737 5733 5730 5726 5722 5718 5714 5711 5707 5704 5702 5700 5699 5697 5695 5692 5691 5690 5690 5689 5689 5688 5687 5686 5685 5685 5684 5684 5684 5684 5683 5683
5839 5837 5836 5835 5834 5832 5830 5828 5825 5823 5821 5819 5817 5815 5813 5811 5808 5806 5803 5800 5797 5795 5792 5790 5787 5784 5781 5777 5774 5770 5767 5765 5763 5761 5759 5757 5754 5751 5747 5743 5740 5736 5733 5729 5725 5722 5718 5714 5710 5706 5703 5700 5698 5696 5695 5693 5691 5689 5687 5686 5685 5684 5683 5682 5682 5681 5680 5679 5678 5678 5677 5677 5676 5676
5834 5833 5831 5830 5829 5828 5826 5823 5821 5818 5816 5814 5812 5810 5808 5806 5804 5801 5799 5796 5793 5791 5789 5786 5782 5779 5776 5773 5770 5767 5764 5762 5760 5758 5756 5754 5751 5747 5743 5739 5735 5732 5728 5725 5721 5718 5714 5710 5706 5702 5699 5696 5694 5692 5690 5689 5687 5685 5684 5683 5681 5679 5678 5677 5676 5675 5674 5674 5673 5672 5671 5670 5669 5668
5830 5828 5826 5825 5824 5823 5821 5819 5816 5814 5812 5810 5808 5806 5804 5802 5799 5797 5794 5792 5789 5787 5784 5781 5778 5775 5772 5768 5765 5763 5761 5759 5758 5756 5753 5750 5746 5743 5738 5734 5731 5727 5724 5720 5717 5713 5709 5705 5702 5698 5695 5692 5690 5687 5686 5685 5683 5681 5680 5679 5678 5676 5674 5672 5670 5669 5668 5667 5667 5666 5665 5664 5663 5661
5825 5823 5821 5820 5819 5818 5816 5814 5811 5809 5807 5805 5804 5802 5800 5797 5795 5793 5790 5787 5785 5783 5780 5777 5774 5771 5768 5765 5762 5760 5758 5756 5755 5752 5749 5745 5742 5738 5734 5730 5726 5722 5719 5715 5712 5708 5705 5701 5697 5694 5691 5688 5685 5682 5680 5679 5678 5677 5675 5673 5673 5672 5670 5668 5665 5664 5662 5661 5660 5659 5658 5657 5656 5654
5821 5819 5817 5815 5814 5813 5812 5809 5807 5805 5803 5801 5799 5797 5795 5793 5791 5788 5786 5783 5781 5779 5776 5772 5769 5767 5764 5762 5760 5757 5755 5754 5751 5748 5745 5741 5738 5734 5730 5726 5722 5718 5714 5711 5707 5704 5700 5697 5693 5690 5687 5684 5681 5678 5676 5674 5673 5672 5670 5668 5667 5666 5665 5663 5661 5659 5656 5655 5654 5653 5652 5651 5649 5648
5816 5814 5812 5810 5809 5809 5807 5804 5802 5800 5798 5796 5795 5793 5791 5789 5787 5784 5782 5779 5777 5774 5771 5768 5765 5763 5761 5758 5757 5755 5753 5751 5748 5745 5742 5738 5734 5730 5726 5722 5718 5714 5711 5707 5703 5700 5696 5693 5689 5686 5683 5680 5677 5674 5672 5670 5667 5665 5664 5662 5660 5659 5658 5656 5654 5653 5651 5649 5648 5646 5646 5645 5643 5641
5809 5808 5806 5805 5804 5804 5802 5799 5797 5795 5794 5792 5790 5788 5787 5785 5782 5780 5778 5775 5772 5769 5767 5764 5762 5760 5757 5755 5754 5752 5749 5747 5745 5742 5739 5735 5731 5727 5723 5719 5716 5712 5708 5705 5701 5697 5693 5689 5686 5683 5679 5676 5673 5670 5669 5666 5663 5660 5658 5656 5654 5653 5651 5649 5647 5646 5644 5643 5641 5640 5640 5639 5637 5634
5803 5802 5801 5800 5799 5798 5796 5794 5792 5790 5789 5787 5785 5784 5782 5780 5778 5776 5773 5770 5767 5765 5763 5761 5758 5756 5754 5752 5750 5748 5746 5744 5741 5739 5736 5732 5728 5724 5720 5716 5713 5709 5706 5702 5699 5695 5691 5687 5684 5680 5677 5673 5668 5665 5663 5662 5659 5656 5653 5650 5647 5645 5644 5642 5640 5638 5637 5635 5634 5633 5633 5633 5631 5628
5796 5796 5795 5794 5793 5792 5790 5788 5787 5785 5784 5782 5780 5779 5778 5775 5773 5771 5769 5766 5763 5761 5759 5757 5755 5753 5751 5749 5747 5745 5743 5740 5738 5736 5733 5729 5725 5721 5717 5713 5710 5706 5703 5700 5697 5693 5690 5686 5683 5679 5675 5671 5666 5661 5657 5655 5653 5650 5648 5645 5641 5638 5636 5635 5633 5631 5630 5628 5626 5625 5626 5626 5625 5622
5789 5789 5789 5788 5787 5786 5784 5783 5782 5780 5778 5777 5776 5775 5773 5771 5769 5767 5764 5761 5758 5757 5755 5753 5751 5749 5748 5746 5744 5742 5740 5738 5736 5733 5730 5726 5723 5718 5714 5710 5707 5703 5700 5697 5694 5691 5688 5684 5681 5678 5674 5671 5667 5661 5656 5651 5648 5645 5643 5640 5637 5633 5630 5628 5627 5625 5623 5621 5620 5619 5618 5619 5618 5616
5782 5783 5783 5782 5781 5780 5779 5777 5776 5774 5773 5772 5771 5770 5768 5766 5764 5762 5758 5756 5754 5753 5751 5749 5748 5746 5744 5742 5740 5738 5737 5735 5733 5730 5727 5724 5720 5716 5711 5707 5704 5701 5697 5694 5692 5689 5685 5682 5679 5676 5672 5669 5666 5662 5657 5651 5645 5640 5637 5635 5633 5629 5626 5623 5622 5620 5617 5616 5615 5613 5612 5612 5612 5609
5775 5776 5776 5775 5775 5774 5773 5772 5770 5769 5768 5767 5766 5764 5763 5761 5759 5756 5754 5752 5750 5749 5747 5746 5744 5742 5741 5739 5737 5735 5734 5732 5730 5728 5725 5721 5717 5713 5708 5705 5701 5698 5695 5691 5689 5686 5683 5680 5676 5673 5669 5666 5663 5660 5656 5651 5645 5639 5634 5631 5629 5626 5622 5619 5617 5615 5613 5612 5610 5609 5607 5606 5605 5603
5769 5769 5769 5769 5769 5768 5767 5766 5764 5763 5763 5762 5760 5759 5758 5756 5754 5752 5749 5748 5746 5745 5743 5742 5740 5739 5737 5736 5734 5733 5731 5730 5728 5725 5722 5719 5715 5710 5706 5703 5699 5696 5692 5689 5686 5683 5680 5677 5673 5670 5666 5663 5659 5656 5653 5649 5645 5639 5632 5627 5624 5621 5618 5615 5612 5610 5609 5607 5606 5605 5603 5602 5600 5597
5762 5763 5763 5764 5763 5762 5761 5760 5759 5758 5757 5756 5755 5754 5752 5751 5749 5747 5745 5744 5742 5741 5739 5738 5736 5735 5734 5733 5731 5730 5728 5727 5725 5723 5720 5716 5712 5708 5704 5701 5697 5694 5690 5687 5683 5680 5677 5674 5671 5668 5664 5660 5656 5653 5649 5646 5641 5636 5630 5624 5619 5616 5613 5610 5608 5606 5604 5603 5602 5600 5599 5597 5596 5593
5756 5757 5757 5757 5757 5756 5755 5754 5753 5753 5752 5751 5749 5748 5747 5746 5744 5743 5741 5740 5738 5737 5736 5734 5733 5732 5731 5730 5728 5727 5726 5724 5722 5720 5717 5714 5710 5706 5702 5699 5695 5692 5689 5685 5682 5678 5675 5672 5669 5665 5662 5658 5654 5650 5646 5643 5639 5634 5629 5624 5618 5613 5610 5606 5603 5601 5599 5598 5596 5595 5593 5591 5590 5587
5750 5750 5751 5750 5750 5749 5749 5748 5748 5747 5746 5745 5744 5743 5742 5741 5740 5738 5737 5735 5734 5733 5731 5730 5729 5728 5727 5726 5725 5724 5723 5721 5720 5717 5714 5711 5707 5704 5700 5696 5693 5690 5687 5683 5680 5676 5673 5670 5666 5663 5659 5656 5652 5648 5644 5640 5636 5632 5628 5624 5619 5613 5609 5604 5600 5597 5594 5592 5590 5587 5585 5582 5580 5578
5743 5744 5744 5744 5744 5743 5743 5742 5742 5741 5741 5740 5739 5738 5737 5736 5735 5733 5732 5731 5729 5728 5727 5726 5725 5725 5724 5723 5722 5721 5720 5718 5717 5715 5712 5708 5705 5701 5697 5694 5691 5688 5685 5681 5678 5675 5671 5667 5664 5661 5657 5653 5649 5645 5641 5637 5633 5630 5626 5622 5618 5614 5609 5604 5599 5595 5591 5588 5585 5580 5576 5572 5568 5565
5737 5737 5737 5737 5737 5737 5737 5736 5736 5736 5735 5734 5734 5733 5732 5731 5730 5729 5727 5726 5725 5723 5723 5722 5722 5721 5720 5719 5719 5718 5717 5715 5714 5712 5709 5706 5702 5698 5695 5692 5689 5686 5683 5679 5676 5673 5669 5665 5662 5659 5655 5651 5647 5643 5639 5635 5631 5628 5624 5620 5616 5612 5608 5604 5600 5596 5591 5586 5583 5579 5574 5569 5564 5560
5731 5731 5731 5731 5731 5731 5731 5731 5730 5730 5730 5729 5729 5728 5727 5726 5725 5724 5723 5722 5720 5719 5719 5719 5718 5718 5717 5716 5716 5715 5713 5712 5711 5709 5706 5703 5699 5696 5693 5690 5687 5684 5681 5678 5674 5671 5667 5663 5660 5656 5653 5649 5645 5641 5637 5633 5629 5625 5622 5617 5613 5610 5606 5603 5599 5596 5592 5587 5582 5578 5574 5569 5564 5558